This is the latest recevied weather packets stored in our database for station/object EA5JUX. If no packets are shown the sender has not sent any weather packets the latest 1 day(s).
| Time | Temp. | Humidity | Pressure | Rain* | Wind** | Luminosity | Snow |
|---|---|---|---|---|---|---|---|
| 1778076738 | 20.56° C | 72% | 1009.5 hPa | 0 mm | - | - | - |
| 1778076137 | 21.11° C | 71% | 1009.4 hPa | 0 mm | - | - | - |
| 1778075537 | 20.56° C | 70% | 1009.5 hPa | 0 mm | - | - | - |
| 1778074937 | 20.56° C | 72% | 1009.6 hPa | 0 mm | - | - | - |
| 1778074637 | 20.56° C | 71% | 1009.6 hPa | 0 mm | - | - | - |
| 1778074356 | 20.56° C | 71% | 1009.6 hPa | 0 mm | - | - | - |
| 1778070437 | 21.11° C | 71% | 1009.9 hPa | 0 mm | - | - | - |
| 1778070137 | 21.11° C | 71% | 1010.1 hPa | 0 mm | - | - | - |
| 1778069837 | 20.56° C | 71% | 1010.2 hPa | 0 mm | - | - | - |
| 1778069237 | 20.56° C | 71% | 1010.5 hPa | 0 mm | - | - | - |
| 1778068937 | 21.11° C | 72% | 1010.4 hPa | 0 mm | - | - | - |
| 1778068659 | 21.11° C | 70% | 1010.4 hPa | 0 mm | - | - | - |
| 1778068337 | 21.11° C | 72% | 1010.4 hPa | 0 mm | - | - | - |
| 1778068057 | 20.56° C | 73% | 1010.2 hPa | 0 mm | - | - | - |
| 1778067737 | 20.56° C | 74% | 1010.5 hPa | 0 mm | - | - | - |
| 1778067437 | 20° C | 75% | 1010.4 hPa | 0 mm | - | - | - |
| 1778066238 | 21.11° C | 70% | 1010.5 hPa | 0 mm | - | - | - |
| 1778065637 | 21.67° C | 72% | 1010.3 hPa | 0 mm | - | - | - |
| 1778064137 | 21.11° C | 73% | 1010.6 hPa | 0 mm | - | - | - |
| 1778063837 | 21.11° C | 74% | 1010.6 hPa | 0 mm | - | - | - |
| 1778062348 | 21.11° C | 77% | 1010.3 hPa | 0 mm | - | - | - |
| 1778061757 | 20.56° C | 76% | 1010.5 hPa | 0 mm | - | - | - |
| 1778061437 | 20° C | 77% | 1010.6 hPa | 0 mm | - | - | - |
| 1778061137 | 19.44° C | 77% | 1010.5 hPa | 0 mm | - | - | - |
| 1778060854 | 20.56° C | 76% | 1010.5 hPa | 0 mm | - | - | - |
* Rain latest hour (hover to see other rain measurements)
** Current wind speed in m/s (hover to see current wind gust speed)